| time (UTC) | temp F | wind direction | speed MPH | gust MPH | rain 1hr in | rain 24hr in | rain mn in | humidity % | barometer mb |
| 20260906054608 | 65 | 0 | 0.0 | 0.0 | 0.00 | 0.00 | 0.00 | 75 | 1023.5 |
| 20260906053101 | 65 | 0 | 0.0 | 0.0 | 0.00 | 0.00 | 0.00 | 74 | 1023.5 |
| 20260906051608 | 64 | 0 | 0.0 | 0.0 | 0.00 | 0.00 | 0.00 | 72 | 1023.6 |
| 20260906050107 | 64 | 0 | 0.0 | 0.0 | 0.00 | 0.00 | 0.00 | 67 | 1023.7 |
| 20260906044607 | 64 | 0 | 0.0 | 0.0 | 0.00 | 0.00 | 0.00 | 69 | 1023.6 |
| 20260906043103 | 65 | 0 | 0.0 | 0.0 | 0.00 | 0.00 | 0.00 | 71 | 1023.6 |
| 20260906041556 | 65 | 0 | 0.0 | 0.0 | 0.00 | 0.00 | 0.00 | 71 | 1023.6 |
| 20260906040105 | 65 | 0 | 0.0 | 0.0 | 0.00 | 0.00 | 0.00 | 71 | 1023.5 |
| 20260906034605 | 65 | 0 | 0.0 | 0.0 | 0.00 | 0.00 | 0.00 | 71 | 1023.5 |
| 20260906033100 | 64 | 0 | 0.0 | 0.0 | 0.00 | 0.00 | 0.00 | 66 | 1023.5 |
| 20260906031556 | 64 | 0 | 0.0 | 0.0 | 0.00 | 0.00 | 0.00 | 63 | 1023.4 |
| 20260906030105 | 64 | 0 | 0.0 | 0.0 | 0.00 | 0.00 | 0.00 | 64 | 1023.1 |
| 20260906024603 | 64 | 0 | 0.0 | 0.0 | 0.00 | 0.00 | 0.00 | 63 | 1023.1 |
| 20260906023056 | 64 | 0 | 0.0 | 3.0 | 0.00 | 0.00 | 0.00 | 62 | 1023.2 |
| 20260906021606 | 65 | 0 | 0.0 | 0.0 | 0.00 | 0.00 | 0.00 | 60 | 1023.1 |
| 20260906020104 | 66 | 0 | 0.0 | 3.0 | 0.00 | 0.00 | 0.00 | 59 | 1023.1 |
| 20260906014649 | 67 | 0 | 1.0 | 5.0 | 0.00 | 0.00 | 0.00 | 59 | 1023.1 |
| 20260906013100 | 67 | 148 | 0.0 | 3.0 | 0.00 | 0.00 | 0.00 | 60 | 1023.3 |
| 20260906011606 | 68 | 152 | 0.0 | 6.0 | 0.00 | 0.00 | 0.00 | 58 | 1023.4 |
| 20260906004610 | 69 | 0 | 0.0 | 7.0 | 0.00 | 0.00 | 0.00 | 56 | 1023.2 |
| 20260906003116 | 69 | 153 | 2.0 | 9.0 | 0.00 | 0.00 | 0.00 | 54 | 1023.2 |
| 20260906001603 | 70 | 138 | 4.0 | 12.0 | 0.00 | 0.00 | 0.00 | 53 | 1023.4 |
| 20260905234611 | 71 | 0 | 3.0 | 10.0 | 0.00 | 0.00 | 0.00 | 49 | 1023.2 |
| 20260905233106 | 72 | 161 | 3.0 | 11.0 | 0.00 | 0.00 | 0.00 | 49 | 1023.4 |
| 20260905231605 | 73 | 271 | 1.0 | 9.0 | 0.00 | 0.00 | 0.00 | 46 | 1023.6 |
| 20260905230110 | 74 | 286 | 3.0 | 14.0 | 0.00 | 0.00 | 0.00 | 44 | 1023.6 |
| 20260905224613 | 74 | 0 | 3.0 | 12.0 | 0.00 | 0.00 | 0.00 | 42 | 1023.7 |
| 20260905223058 | 75 | 166 | 5.0 | 13.0 | 0.00 | 0.00 | 0.00 | 39 | 1023.8 |
| 20260905221611 | 73 | 121 | 4.0 | 11.0 | 0.00 | 0.00 | 0.00 | 46 | 1023.8 |
| 20260905220106 | 75 | 176 | 5.0 | 13.0 | 0.00 | 0.00 | 0.00 | 42 | 1023.8 |
| 20260905214610 | 76 | 247 | 4.0 | 17.0 | 0.00 | 0.00 | 0.00 | 41 | 1024.0 |
| 20260905213106 | 77 | 325 | 2.0 | 13.0 | 0.00 | 0.00 | 0.00 | 38 | 1024.0 |
| 20260905211602 | 77 | 92 | 3.0 | 10.0 | 0.00 | 0.00 | 0.00 | 40 | 1023.9 |
| 20260905210103 | 76 | 230 | 4.0 | 12.0 | 0.00 | 0.00 | 0.00 | 40 | 1024.2 |
| 20260905204603 | 75 | 144 | 4.0 | 15.0 | 0.00 | 0.00 | 0.00 | 43 | 1024.2 |
| 20260905203056 | 73 | 172 | 5.0 | 13.0 | 0.00 | 0.00 | 0.00 | 45 | 1024.4 |
| 20260905201627 | 73 | 178 | 5.0 | 14.0 | 0.00 | 0.00 | 0.00 | 44 | 1024.3 |
| 20260905200057 | 72 | 169 | 3.0 | 10.0 | 0.00 | 0.00 | 0.00 | 51 | 1024.3 |
| 20260905194559 | 72 | 148 | 4.0 | 12.0 | 0.00 | 0.00 | 0.00 | 52 | 1024.2 |
| 20260905193108 | 73 | 152 | 4.0 | 12.0 | 0.00 | 0.00 | 0.00 | 48 | 1024.6 |
| 20260905191602 | 72 | 155 | 5.0 | 16.0 | 0.00 | 0.00 | 0.00 | 47 | 1024.6 |
| 20260905190103 | 75 | 0 | 4.0 | 10.0 | 0.00 | 0.00 | 0.00 | 46 | 1024.6 |
| 20260905184602 | 75 | 183 | 3.0 | 11.0 | 0.00 | 0.00 | 0.00 | 44 | 1024.4 |
| 20260905183058 | 74 | 216 | 3.0 | 10.0 | 0.00 | 0.00 | 0.00 | 47 | 1024.5 |
| 20260905181612 | 71 | 162 | 5.0 | 13.0 | 0.00 | 0.00 | 0.00 | 51 | 1024.6 |
| 20260905180105 | 72 | 124 | 3.0 | 12.0 | 0.00 | 0.00 | 0.00 | 49 | 1024.4 |
| 20260905174603 | 71 | 223 | 1.0 | 15.0 | 0.00 | 0.00 | 0.00 | 47 | 1024.4 |
| 20260905173100 | 71 | 171 | 5.0 | 11.0 | 0.00 | 0.00 | 0.00 | 47 | 1024.2 |
| 20260905171605 | 71 | 141 | 4.0 | 10.0 | 0.00 | 0.00 | 0.00 | 39 | 1024.0 |
| 20260905164600 | 72 | 213 | 1.0 | 11.0 | 0.00 | 0.00 | 0.00 | 37 | 1023.6 |
| 20260905163106 | 71 | 129 | 3.0 | 12.0 | 0.00 | 0.00 | 0.00 | 31 | 1023.6 |
| 20260905161606 | 70 | 242 | 2.0 | 9.0 | 0.00 | 0.00 | 0.00 | 21 | 1023.4 |
| 20260905154619 | 68 | 132 | 3.0 | 8.0 | 0.00 | 0.00 | 0.00 | 18 | 1023.1 |
| 20260905153102 | 67 | 152 | 3.0 | 9.0 | 0.00 | 0.00 | 0.00 | 17 | 1022.9 |
| 20260905151605 | 67 | 173 | 1.0 | 8.0 | 0.00 | 0.00 | 0.00 | 15 | 1022.8 |
| 20260905150106 | 64 | 167 | 1.0 | 6.0 | 0.00 | 0.00 | 0.00 | 13 | 1022.6 |
| 20260905144603 | 62 | 150 | 3.0 | 8.0 | 0.00 | 0.00 | 0.00 | 14 | 1022.6 |
| 20260905143104 | 61 | 144 | 3.0 | 7.0 | 0.00 | 0.00 | 0.00 | 15 | 1022.4 |
| 20260905141602 | 61 | 144 | 2.0 | 5.0 | 0.00 | 0.00 | 0.00 | 14 | 1022.1 |
| 20260905140105 | 60 | 128 | 1.0 | 5.0 | 0.00 | 0.00 | 0.00 | 13 | 1021.9 |
| 20260905134607 | 59 | 0 | 1.0 | 5.0 | 0.00 | 0.00 | 0.00 | 16 | 1021.8 |
| 20260905133101 | 58 | 0 | 0.0 | 3.0 | 0.00 | 0.00 | 0.00 | 24 | 1021.7 |
| 20260905131608 | 57 | 69 | 0.0 | 3.0 | 0.00 | 0.00 | 0.00 | 31 | 1021.3 |
| 20260905130058 | 57 | 136 | 1.0 | 5.0 | 0.00 | 0.00 | 0.00 | 31 | 1021.5 |
| 20260905124605 | 57 | 155 | 2.0 | 6.0 | 0.00 | 0.00 | 0.00 | 31 | 1021.3 |
| 20260905123105 | 57 | 153 | 3.0 | 8.0 | 0.00 | 0.00 | 0.00 | 32 | 1021.1 |
| 20260905121605 | 57 | 138 | 3.0 | 6.0 | 0.00 | 0.00 | 0.00 | 35 | 1021.0 |
| 20260905120105 | 57 | 145 | 2.0 | 6.0 | 0.00 | 0.00 | 0.00 | 38 | 1020.9 |
| 20260905114558 | 57 | 150 | 2.0 | 6.0 | 0.00 | 0.00 | 0.00 | 38 | 1021.0 |
| 20260905113053 | 57 | 165 | 2.0 | 6.0 | 0.00 | 0.00 | 0.00 | 39 | 1021.1 |
| 20260905111610 | 57 | 131 | 2.0 | 5.0 | 0.00 | 0.00 | 0.00 | 39 | 1021.3 |
| 20260905104613 | 56 | 0 | 1.0 | 3.0 | 0.00 | 0.00 | 0.00 | 38 | 1021.4 |
| 20260905103105 | 56 | 150 | 1.0 | 3.0 | 0.00 | 0.00 | 0.00 | 39 | 1021.4 |
| 20260905101604 | 56 | 150 | 2.0 | 5.0 | 0.00 | 0.00 | 0.00 | 39 | 1021.5 |
| 20260905100107 | 57 | 149 | 2.0 | 5.0 | 0.00 | 0.00 | 0.00 | 38 | 1021.6 |
| 20260905094554 | 56 | 121 | 1.0 | 3.0 | 0.00 | 0.00 | 0.00 | 38 | 1021.5 |
| 20260905093105 | 57 | 117 | 2.0 | 7.0 | 0.00 | 0.00 | 0.00 | 38 | 1021.6 |
| 20260905091636 | 57 | 148 | 2.0 | 5.0 | 0.00 | 0.00 | 0.00 | 38 | 1021.4 |
| 20260905084614 | 56 | 0 | 0.0 | 0.0 | 0.00 | 0.00 | 0.00 | 39 | 1021.8 |
| 20260905083055 | 56 | 0 | 0.0 | 3.0 | 0.00 | 0.00 | 0.00 | 40 | 1021.8 |
| 20260905081605 | 56 | 175 | 0.0 | 3.0 | 0.00 | 0.00 | 0.00 | 39 | 1022.0 |
| 20260905080109 | 57 | 0 | 1.0 | 5.0 | 0.00 | 0.00 | 0.00 | 39 | 1022.1 |
| 20260905074628 | 56 | 142 | 2.0 | 4.0 | 0.00 | 0.00 | 0.00 | 39 | 1022.2 |
| 20260905073059 | 57 | 140 | 2.0 | 4.0 | 0.00 | 0.00 | 0.00 | 39 | 1022.4 |
| 20260905071612 | 57 | 136 | 2.0 | 5.0 | 0.00 | 0.00 | 0.00 | 38 | 1022.0 |
| 20260905070114 | 57 | 140 | 2.0 | 4.0 | 0.00 | 0.00 | 0.00 | 38 | 1022.1 |
| 20260905064602 | 57 | 0 | 0.0 | 0.0 | 0.00 | 0.00 | 0.00 | 38 | 1021.9 |
| 20260905063059 | 58 | 0 | 0.0 | 0.0 | 0.00 | 0.00 | 0.00 | 36 | 1021.8 |
| 20260905061614 | 58 | 0 | 0.0 | 0.0 | 0.00 | 0.00 | 0.00 | 36 | 1021.7 |
| 20260905060107 | 58 | 0 | 0.0 | 0.0 | 0.00 | 0.00 | 0.00 | 36 | 1021.9 |